Location: *
(42.0175°N, 9.4056°E)
Time: 19:45:40
(UTC+00:00)

USA 267 - Pass Details

Date: 25 August 2019
Orbit: 1101 x 1107 km, 123.0° (Epoch: 22 September)

Event Time Altitude Azimuth Distance (km) Brightness Sun altitude
Rises 19:28:01 0° 46° (NE) 3,922 6.0 -14.5°
Reaches altitude 10° 19:30:34 10° 42° (NE) 2,963 5.4 -15.0°
Maximum altitude 19:36:48 50° 329° (NNW) 1,375 4.2 -16.0°
Drops below altitude 10° 19:43:03 10° 257° (WSW) 2,956 6.1 -16.9°
Sets 19:45:36 0° 252° (WSW) 3,912 6.7 -17.3°
